{"data":{"norad_id":60153,"epoch":"2026-09-21T20:54:37.416960Z","epoch_age_seconds":62996,"freshness":"FRESH","line1":"1 60153U 24120U   26264.87126640  .00000700  00000+0  31860-4 0  9996","line2":"2 60153  53.1595 125.0503 0001336  91.0685 269.0471 15.34385364126542","mean_motion":15.34385364,"eccentricity":0.0001336,"inclination_deg":53.1595,"raan_deg":125.0503,"arg_perigee_deg":91.0685,"mean_anomaly_deg":269.0471,"bstar":3.186e-5,"rev_number":12654,"period_min":93.848653264396,"perigee_km":461.83279976138,"apogee_km":463.6606838972,"semimajor_km":6840.8837418293,"source":"CELESTRAK","updated_at":"2026-09-22T09:00:49.180416Z"}}